[[{"header":{"parameterUnit":"m.s-1","parameterCategory":1,"la1":30.2991,"la2":30.254,"lo1":-89.0895,"lo2":-89.0444,"dy":0.0017,"dx":0.0017,"nx":28,"ny":28,"refTime":"2024-06-23T21:00:00:Z","depth":0,"parameterNumber":2,"parameterNumberName":"U-component_of_WINDS"},"data":[0,0,0,0,0,0,0,0,0,0,0,0,0,0,0,0,0,0,0,0,0,0,0,0,0,0,0,0,0,0,0,0,0,0,0,0,0,0,0,0,0,0,0,0,0,0,0,0,0,0,0,0,0,0,0,0,0,0,4.7499,4.75,0,4.7572,4.7572,4.7573,4.7472,4.7468,4.7464,4.7461,4.7533,4.7538,4.7544,0,0,0,0,0,0,0,0,0,0,0,0,0,4.7269,4.7274,4.7499,4.75,4.7501,4.7571,4.7572,4.7573,4.7472,4.7468,4.7463,4.7459,4.7532,4.7538,4.7544,0,0,0,0,0,0,0,0,0,0,0,0,0,4.7358,4.7276,4.7499,4.7459,4.7456,4.7571,4.7572,4.7574,4.7473,4.7468,4.7462,4.7457,4.7529,4.7537,4.7545,4.7702,0,0,4.7569,4.7573,0,0,0,0,0,0,0,0,4.7353,4.7367,4.7464,4.7462,4.7459,4.7507,4.7518,4.7617,4.7475,4.7467,4.7461,4.7455,4.7529,4.7536,4.7562,4.7706,4.7709,4.757,4.7575,4.7578,4.758,0,0,0,0,0,0,0,4.7347,4.7363,4.7527,4.7465,4.7462,4.7436,4.7443,4.7536,4.7527,4.7467,4.746,4.747,4.7526,4.7555,4.7563,4.771,4.757,4.7577,4.7582,4.7585,4.7983,4.7989,0,0,0,0,0,0,4.7346,4.7359,4.7525,4.753,4.7392,4.7445,4.7452,4.7497,4.7526,4.7525,4.7474,4.7465,4.7544,4.7554,4.7565,4.7748,4.7578,4.7586,4.759,4.7978,4.7985,4.7991,0,0,0,0,0,0,4.7342,4.7362,4.7522,4.7442,4.7461,4.7454,4.7506,4.7501,4.7529,4.7531,4.7529,4.7505,4.754,4.7554,4.7668,4.7749,4.7589,4.7596,4.7971,4.798,4.7988,4.8117,0,0,0,0,0,0,4.7336,4.7361,4.7421,4.7444,4.7465,4.7626,4.7511,4.7507,4.7543,4.7532,4.7559,4.7559,4.7537,4.7657,4.7676,4.7757,4.7603,4.7963,4.7975,4.7985,4.8106,4.8129,4.815,0,0,0,0,0,4.7328,4.7455,4.7425,4.7446,4.7541,4.763,4.7642,4.7615,4.755,4.761,4.7611,4.7558,4.7738,4.767,4.769,4.7775,4.7958,4.7971,4.7984,4.8096,4.8125,4.8149,0,0,0,0,0,0,4.7441,4.7457,4.7424,4.7563,4.7596,4.7613,4.7687,4.7647,4.7698,4.7685,4.7648,4.7655,4.7777,4.7788,4.7711,4.7927,4.7837,4.7855,4.7915,4.7943,4.7964,4.7957,4.7609,0,0,0,0,0,4.7482,4.7555,4.7565,4.7686,4.7705,4.7694,4.7732,4.7708,4.774,4.7754,4.7763,4.7796,4.786,4.7902,4.7961,4.8108,4.8111,4.8177,4.8199,4.8217,4.8231,4.8307,4.8335,4.8034,4.8034,4.8034,0,0,4.7568,4.7586,4.7633,4.7709,4.7732,4.7806,4.7706,4.7789,4.7843,4.7766,4.7873,4.7883,4.7917,4.8047,4.8105,4.806,4.8316,4.8233,4.8248,4.8252,4.8323,4.8351,4.8377,4.8043,4.8041,4.804,0,0,4.776,4.7783,4.7885,4.791,4.7946,4.7938,4.7963,4.7987,4.7989,4.8098,4.804,4.8104,4.8216,4.8241,4.8269,4.8473,4.8424,4.8493,4.8607,4.8681,4.8704,4.8725,4.8794,4.8819,4.8509,4.8509,4.8509,0,4.7861,4.7971,4.7942,4.8029,4.8063,4.7998,4.81,4.8126,4.818,4.8204,4.8153,4.829,4.8309,4.8443,4.8493,4.8519,4.8544,4.8488,4.8703,4.8724,4.8743,4.8808,4.8834,4.8517,4.8516,4.8515,4.8515,0,4.8092,4.817,4.8248,4.8301,4.8345,4.8439,4.8423,4.847,4.8443,4.844,4.855,4.8571,4.8631,4.8663,4.8637,4.8793,4.8763,4.871,4.8617,4.878,4.884,4.8865,4.8528,4.8525,4.8523,4.8521,0,0,4.8355,4.8392,4.842,4.8443,4.8479,4.8537,4.8629,4.8689,4.8728,4.8769,4.8842,4.8938,4.8887,4.8919,4.8896,4.8962,4.9117,4.8899,4.8899,4.8935,4.9287,4.9324,4.9354,4.9088,4.9092,4.9096,4.9282,0,4.8544,4.8701,4.8678,4.8829,4.8898,4.8838,4.8917,4.8947,4.8947,4.9006,4.9006,4.9073,4.9003,4.9021,4.9084,4.9085,4.9187,4.9072,4.9152,4.9155,4.9141,4.9386,4.9426,4.9601,4.9306,4.931,4.9313,0,4.8785,4.8833,4.8991,4.9015,4.9043,4.9115,4.9167,4.9225,4.9257,4.9252,4.9289,4.9254,4.9343,4.9253,4.9374,4.9296,4.9328,4.9334,4.934,4.9343,4.9241,4.9392,4.9657,4.9681,4.9351,4.9348,4.9345,0,4.8955,4.9061,4.9168,4.919,4.9221,4.9272,4.9288,4.9315,4.9352,4.9398,4.9421,4.9478,4.9508,4.9552,4.9532,4.9469,4.9656,4.9565,4.9652,4.9652,4.969,4.9687,4.996,4.9718,4.9718,4.9718,4.9717,0,4.9166,4.9264,4.9245,4.931,4.9418,4.9391,4.9498,4.9506,4.9531,4.9596,4.9549,4.961,4.9583,4.9643,4.9629,4.9729,4.9744,4.9741,4.9735,4.9743,4.9743,4.976,4.9745,4.9724,4.9723,4.9722,4.972,0,4.9372,4.9364,4.9476,4.9498,4.9505,4.9583,4.96,4.9661,4.9659,4.9742,4.9759,4.9755,4.9823,4.9809,4.9884,4.9874,4.9999,4.998,4.9988,4.9982,5.0068,5.0058,5.0357,5.0394,5.0133,5.0136,5.0138,0,4.9505,4.9579,4.9609,4.9649,4.9668,4.9735,4.9772,4.9749,4.979,4.9833,4.9888,4.9952,5.0001,5.0112,5.0114,5.0171,5.0151,5.0252,5.0158,5.0163,5.0147,5.0141,5.0147,5.0269,5.0272,5.0274,5.0276,0,4.974,4.9733,4.9789,4.9846,4.9892,4.9935,4.9973,5.0009,4.9988,5.0037,5.0106,5.0144,5.0221,5.0284,5.0336,5.035,5.0309,5.0306,5.0328,5.0334,5.0334,5.0331,5.0033,5.0298,5.0296,5.0294,5.0293,5.0292,4.9911,4.9973,5.0003,5.0067,5.0094,5.0131,5.0188,5.0193,5.0251,5.0311,5.0295,5.0372,5.0402,5.0468,5.0489,5.0548,5.051,5.0544,5.0551,5.0559,5.0567,5.0329,5.0559,5.0558,5.0557,5.0557,5.0556,0,5.0139,5.0156,5.0217,5.0271,5.0322,5.0282,5.0322,5.0366,5.0435,5.0467,5.0517,5.0596,5.0657,5.0665,5.0722,5.0768,5.075,5.0783,5.0777,5.0781,5.06,5.0573,5.0797,5.0796,5.0796,5.0796,5.0796,5.0796,5.0264,5.0366,5.0362,5.0477,5.0492,5.0569,5.0595,5.0627,5.0652,5.0742,5.0793,5.0799,5.0821,5.0879,5.0933,5.0934,5.0955,5.0995,5.0988,5.0818,5.0794,5.0771,5.0745,5.1001,5.1001,5.1162,5.1164,5.1165]},{"header":{"parameterUnit":"m.s-1","parameterCategory":1,"la1":30.2991,"la2":30.254,"lo1":-89.0895,"lo2":-89.0444,"dy":0.0017,"dx":0.0017,"nx":28,"ny":28,"refTime":"2024-06-23T21:00:00:Z","depth":0,"parameterNumber":3,"parameterNumberName":"V-component_of_WINDS"},"data":[0,0,0,0,0,0,0,0,0,0,0,0,0,0,0,0,0,0,0,0,0,0,0,0,0,0,0,0,0,0,0,0,0,0,0,0,0,0,0,0,0,0,0,0,0,0,0,0,0,0,0,0,0,0,0,0,0,0,2.9543,2.9544,0,2.9649,2.965,2.9651,2.9631,2.9629,2.9627,2.9626,2.9735,2.974,2.9745,0,0,0,0,0,0,0,0,0,0,0,0,0,2.9325,2.9329,2.9543,2.9544,2.9546,2.9648,2.965,2.9651,2.9631,2.9629,2.9627,2.9625,2.9734,2.9739,2.9745,0,0,0,0,0,0,0,0,0,0,0,0,0,2.9424,2.933,2.9543,2.9548,2.955,2.9648,2.965,2.9652,2.9632,2.9629,2.9626,2.9624,2.9732,2.9739,2.9746,2.9846,0,0,2.9767,2.977,0,0,0,0,0,0,0,0,2.9418,2.9432,2.9546,2.9548,2.955,2.9624,2.9613,2.9717,2.9633,2.9601,2.9625,2.9622,2.9701,2.971,2.9736,2.9851,2.9856,2.9768,2.9772,2.9775,2.9777,0,0,0,0,0,0,0,2.9412,2.9427,2.9585,2.9548,2.955,2.9545,2.9556,2.9633,2.9665,2.9603,2.9602,2.9615,2.9701,2.9729,2.9739,2.9858,2.9768,2.9774,2.9778,2.9781,3.0058,3.0061,0,0,0,0,0,0,2.9403,2.9422,2.9581,2.9588,2.9476,2.9552,2.9564,2.9603,2.9665,2.9671,2.9617,2.9613,2.9719,2.973,2.9742,2.9863,2.9775,2.9782,2.9786,3.0055,3.0059,3.0063,0,0,0,0,0,0,2.9398,2.9417,2.9577,2.9505,2.9525,2.9558,2.9602,2.9607,2.9635,2.9675,2.9681,2.964,2.9717,2.9733,2.982,2.9866,2.9785,2.9791,3.0052,3.0057,3.0061,3.0105,0,0,0,0,0,0,2.9392,2.9416,2.9454,2.9506,2.9529,2.9653,2.9605,2.9611,2.9647,2.9643,2.9698,2.9704,2.9716,2.981,2.9827,2.9875,2.9797,3.0048,3.0054,3.0059,3.01,3.0111,3.012,0,0,0,0,0,2.9384,2.9463,2.9456,2.9476,2.9577,2.9656,2.9669,2.968,2.9651,2.969,2.9715,2.9703,2.9858,2.9819,2.9838,2.9889,3.0045,3.0052,3.0059,3.0095,3.0109,3.012,0,0,0,0,0,0,2.9418,2.947,2.9463,2.9561,2.9604,2.9652,2.9702,2.9695,2.9748,2.9742,2.9754,2.9767,2.9855,2.9881,2.9836,2.9988,2.9947,2.9959,2.9968,2.9982,2.9992,2.9984,2.9803,0,0,0,0,0,2.9436,2.9495,2.9538,2.9621,2.9642,2.9668,2.9703,2.9708,2.9753,2.9771,2.9803,2.9848,2.9907,2.9946,3.0002,3.0103,3.0114,3.0147,3.0158,3.0166,3.0176,3.0229,3.0244,3.0086,3.0086,3.0086,0,0,2.9476,2.9512,2.9549,2.9628,2.9662,2.9723,2.9684,2.975,2.9795,2.9782,2.9866,2.9891,2.9941,3.0035,3.0079,3.0059,3.0222,3.0175,3.0181,3.0187,3.0238,3.0253,3.0267,3.0091,3.009,3.0089,0,0,2.9579,2.9612,2.9684,2.9718,2.9769,2.9786,2.9803,2.9852,2.9867,2.9952,2.9942,2.9996,3.0098,3.0133,3.0165,3.0279,3.0269,3.0297,3.0351,3.0404,3.0416,3.0427,3.0467,3.0482,3.0307,3.0307,3.0307,0,2.9622,2.9713,2.9722,2.9789,2.9823,2.9812,2.9884,2.9917,2.9985,3.0009,2.9986,3.0112,3.0146,3.0247,3.0275,3.0301,3.0321,3.0291,3.0414,3.0425,3.0435,3.0474,3.0489,3.031,3.0309,3.0309,3.0309,0,2.9762,2.9825,2.9877,2.9941,2.9982,3.0051,3.007,3.011,3.0111,3.0129,3.0215,3.0254,3.0318,3.0342,3.0344,3.0444,3.043,3.041,3.037,3.0453,3.0489,3.0504,3.0314,3.0313,3.0312,3.0311,0,0,2.9891,2.9957,2.9976,3.0004,3.0059,3.0108,3.0176,3.0237,3.0271,3.0317,3.0374,3.0459,3.0441,3.0476,3.0482,3.0528,3.0615,3.0503,3.0504,3.0522,3.0726,3.0741,3.0757,3.0608,3.0611,3.0613,3.0722,0,2.9999,3.0118,3.0128,3.0236,3.0293,3.0282,3.0342,3.0381,3.04,3.0452,3.0473,3.0533,3.0504,3.0525,3.057,3.0595,3.0656,3.0587,3.0662,3.0664,3.0649,3.0776,3.0793,3.0893,3.0736,3.0738,3.074,0,3.0141,3.019,3.0303,3.0348,3.0372,3.0425,3.0481,3.0531,3.0575,3.0586,3.0624,3.0623,3.0693,3.0649,3.0745,3.0698,3.0728,3.0745,3.0749,3.0757,3.0707,3.0787,3.0925,3.094,3.0763,3.0761,3.0759,0,3.0222,3.0317,3.0396,3.0421,3.0475,3.0512,3.0537,3.0578,3.0614,3.0663,3.0686,3.0742,3.0774,3.0817,3.0831,3.0798,3.0926,3.0884,3.0936,3.0936,3.0965,3.0963,3.1109,3.0984,3.0984,3.0984,3.0984,0,3.0342,3.0411,3.0433,3.0482,3.056,3.0569,3.0646,3.0668,3.0704,3.0757,3.0752,3.0802,3.0817,3.0869,3.0881,3.0958,3.0972,3.0982,3.0984,3.0983,3.0981,3.1003,3.0997,3.0988,3.0987,3.0986,3.0986,0,3.0446,3.0464,3.055,3.0593,3.0606,3.0661,3.0698,3.0745,3.0762,3.0829,3.0846,3.0873,3.0934,3.0952,3.1026,3.1033,3.1124,3.1119,3.1108,3.1108,3.116,3.1155,3.1326,3.1349,3.1209,3.121,3.1211,0,3.0521,3.0574,3.0623,3.0657,3.0683,3.0739,3.0775,3.0786,3.0823,3.0876,3.0917,3.0977,3.1026,3.1124,3.1151,3.1207,3.1204,3.126,3.1212,3.1209,3.1204,3.1201,3.1206,3.1269,3.127,3.1272,3.1273,0,3.0652,3.0658,3.0709,3.0763,3.0805,3.0849,3.0891,3.0919,3.0936,3.0978,3.104,3.1078,3.1152,3.1212,3.1268,3.1294,3.1286,3.1287,3.1302,3.1301,3.1293,3.1298,3.1133,3.1283,3.1282,3.1282,3.1281,3.1281,3.0744,3.079,3.0831,3.0888,3.092,3.0959,3.1004,3.1026,3.1078,3.1139,3.1142,3.1209,3.125,3.1325,3.1353,3.1406,3.1389,3.1412,3.1417,3.1423,3.1427,3.1284,3.1416,3.1416,3.1416,3.1415,3.1415,0,3.0874,3.09,3.0952,3.1009,3.1054,3.1041,3.1086,3.1125,3.1183,3.1222,3.127,3.134,3.1398,3.1428,3.1485,3.1521,3.1519,3.1535,3.1533,3.1539,3.1438,3.1419,3.1536,3.1536,3.1536,3.1536,3.1536,3.1536,3.0947,3.1024,3.1034,3.1127,3.1151,3.1216,3.1243,3.1278,3.1309,3.1388,3.1435,3.1454,3.1489,3.1548,3.16,3.1607,3.1628,3.1647,3.1652,3.1558,3.1546,3.1534,3.1516,3.1652,3.1652,3.1748,3.1749,3.175]}]]